Time,TemperatureF,DewpointF,PressureIn,WindDirection,WindDirectionDegrees,WindSpeedMPH,WindSpeedGustMPH,Humidity,HourlyPrecipIn,Conditions,Clouds,dailyrainin,SoftwareType,DateUTC
2013-03-07 00:02:00,39.4,38.1,29.69,East,90,1.6,3.5,95,0.02,RA,,0.00,WeatherDisplay:10.37,2013-03-07 08:02:00,
2013-03-07 00:08:00,39.4,38.1,29.69,NE,45,2.2,3.5,95,0.02,RA,,0.01,WeatherDisplay:10.37,2013-03-07 08:08:00,
2013-03-07 00:13:00,39.2,37.9,29.69,NE,45,2.2,3.5,95,0.02,RA,,0.01,WeatherDisplay:10.37,2013-03-07 08:13:00,
2013-03-07 00:18:00,39.2,37.9,29.69,NE,45,2.2,3.5,95,0.02,CLR,,0.01,WeatherDisplay:10.37,2013-03-07 08:18:00,
2013-03-07 00:23:00,39.2,37.9,29.69,NE,45,1.6,3.5,95,0.02,CLR,,0.01,WeatherDisplay:10.37,2013-03-07 08:23:00,
2013-03-07 00:29:00,39.2,37.9,29.70,East,90,3.1,4.6,95,0.04,RA,,0.02,WeatherDisplay:10.37,2013-03-07 08:29:00,
2013-03-07 00:34:00,39.4,38.1,29.70,SE,135,0.7,2.3,95,0.02,RA,,0.02,WeatherDisplay:10.37,2013-03-07 08:34:00,
2013-03-07 00:39:00,39.4,38.1,29.70,West,270,0.7,3.5,95,0.02,CLR,,0.02,WeatherDisplay:10.37,2013-03-07 08:39:00,
2013-03-07 00:44:00,39.4,38.1,29.70,SW,225,0.0,2.3,95,0.02,CLR,,0.02,WeatherDisplay:10.37,2013-03-07 08:44:00,
2013-03-07 00:50:00,39.6,38.2,29.70,SE,135,0.0,1.2,95,0.02,CLR,,0.02,WeatherDisplay:10.37,2013-03-07 08:50:00,
2013-03-07 00:55:00,39.6,38.2,29.70,East,90,0.0,1.2,95,0.04,RA,,0.04,WeatherDisplay:10.37,2013-03-07 08:55:00,
2013-03-07 01:00:00,39.6,38.2,29.71,East,90,2.2,4.5,95,0.04,RA,,0.04,WeatherDisplay:10.37,2013-03-07 09:00:00,
2013-03-07 01:05:00,39.6,38.2,29.71,East,90,1.6,2.3,95,0.02,CLR,,0.04,WeatherDisplay:10.37,2013-03-07 09:05:00,
2013-03-07 01:11:00,39.6,38.2,29.71,East,90,1.6,2.3,95,0.02,CLR,,0.04,WeatherDisplay:10.37,2013-03-07 09:11:00,
2013-03-07 01:16:00,39.6,38.2,29.72,SE,135,0.0,2.3,95,0.04,RA,,0.05,WeatherDisplay:10.37,2013-03-07 09:16:00,
2013-03-07 01:21:00,39.6,38.2,29.71,SE,135,0.0,0.0,95,0.04,RA,,0.05,WeatherDisplay:10.37,2013-03-07 09:21:00,
2013-03-07 01:26:00,39.6,38.2,29.72,SE,135,0.0,1.2,95,0.04,,,0.05,WeatherDisplay:10.37,2013-03-07 09:26:00,
2013-03-07 01:32:00,39.6,38.2,29.72,SW,225,0.0,1.2,95,0.02,CLR,,0.05,WeatherDisplay:10.37,2013-03-07 09:32:00,
2013-03-07 01:37:00,39.6,38.2,29.73,SW,225,0.0,1.2,95,0.02,CLR,,0.05,WeatherDisplay:10.37,2013-03-07 09:37:00,
2013-03-07 01:42:00,39.6,38.2,29.72,South,180,0.7,2.3,95,0.02,CLR,,0.05,WeatherDisplay:10.37,2013-03-07 09:42:00,
2013-03-07 01:47:00,39.6,38.5,29.73,South,180,0.0,1.6,96,0.02,CLR,,0.05,WeatherDisplay:10.37,2013-03-07 09:47:00,
2013-03-07 01:52:00,39.6,38.5,29.73,ESE,112,0.0,0.0,96,0.01,CLR,,0.05,WeatherDisplay:10.37,2013-03-07 09:52:00,
2013-03-07 01:58:00,39.6,38.5,29.73,East,90,0.0,1.2,96,0.01,CLR,,0.05,WeatherDisplay:10.37,2013-03-07 09:58:00,
2013-03-07 02:03:00,39.6,38.5,29.73,East,90,0.0,0.0,96,0.01,CLR,,0.05,WeatherDisplay:10.37,2013-03-07 10:03:00,
2013-03-07 02:08:00,39.6,38.5,29.73,North,0,0.0,0.0,96,0.01,CLR,,0.05,WeatherDisplay:10.37,2013-03-07 10:08:00,
2013-03-07 02:14:00,39.6,38.5,29.73,East,90,0.0,1.2,96,0.01,CLR,,0.05,WeatherDisplay:10.37,2013-03-07 10:14:00,
2013-03-07 02:19:00,39.6,38.5,29.73,South,180,0.0,0.0,96,0.00,CLR,,0.05,WeatherDisplay:10.37,2013-03-07 10:19:00,
2013-03-07 02:24:00,39.7,38.7,29.74,East,90,0.0,1.2,96,0.01,RA,,0.06,WeatherDisplay:10.37,2013-03-07 10:24:00,
2013-03-07 02:29:00,39.7,38.7,29.73,East,90,0.0,1.2,96,0.01,RA,,0.06,WeatherDisplay:10.37,2013-03-07 10:29:00,
2013-03-07 02:34:00,39.9,38.9,29.73,East,90,0.7,2.3,96,0.01,,,0.06,WeatherDisplay:10.37,2013-03-07 10:34:00,
2013-03-07 02:40:00,39.9,38.9,29.73,NE,45,1.6,3.5,96,0.01,CLR,,0.06,WeatherDisplay:10.37,2013-03-07 10:40:00,
2013-03-07 02:45:00,40.1,39.1,29.73,NE,45,0.7,2.3,96,0.01,CLR,,0.06,WeatherDisplay:10.37,2013-03-07 10:45:00,
2013-03-07 02:50:00,40.1,39.1,29.73,East,90,0.7,2.3,96,0.01,CLR,,0.06,WeatherDisplay:10.37,2013-03-07 10:50:00,
2013-03-07 02:55:00,40.3,39.2,29.73,East,90,0.0,3.5,96,0.02,RA,,0.07,WeatherDisplay:10.37,2013-03-07 10:55:00,
2013-03-07 03:01:00,40.3,39.2,29.73,East,90,0.7,1.6,96,0.02,RA,,0.07,WeatherDisplay:10.37,2013-03-07 11:01:00,
2013-03-07 03:06:00,40.3,39.2,29.74,NE,45,0.7,1.2,96,0.02,CLR,,0.07,WeatherDisplay:10.37,2013-03-07 11:06:00,
2013-03-07 03:11:00,40.3,39.2,29.74,SE,135,1.6,3.1,96,0.02,CLR,,0.07,WeatherDisplay:10.37,2013-03-07 11:11:00,
2013-03-07 03:16:00,40.5,39.4,29.74,SE,135,0.0,1.2,96,0.02,CLR,,0.07,WeatherDisplay:10.37,2013-03-07 11:16:00,
2013-03-07 03:22:00,40.5,39.4,29.74,NE,45,0.7,2.3,96,0.04,RA,,0.08,WeatherDisplay:10.37,2013-03-07 11:22:00,
2013-03-07 03:27:00,40.5,39.4,29.74,East,90,0.7,3.5,96,0.02,RA,,0.08,WeatherDisplay:10.37,2013-03-07 11:27:00,
2013-03-07 03:32:00,40.5,39.4,29.75,East,90,0.7,3.5,96,0.02,,,0.08,WeatherDisplay:10.37,2013-03-07 11:32:00,
2013-03-07 03:37:00,40.5,39.4,29.75,East,90,0.0,1.2,96,0.02,CLR,,0.08,WeatherDisplay:10.37,2013-03-07 11:37:00,
2013-03-07 03:42:00,40.5,39.4,29.75,East,90,0.7,2.3,96,0.02,CLR,,0.08,WeatherDisplay:10.37,2013-03-07 11:42:00,
2013-03-07 03:48:00,40.5,39.4,29.75,East,90,1.6,4.6,96,0.04,RA,,0.09,WeatherDisplay:10.37,2013-03-07 11:48:00,
2013-03-07 03:53:00,40.5,39.4,29.75,NE,45,0.7,5.8,96,0.04,RA,,0.09,WeatherDisplay:10.37,2013-03-07 11:53:00,
2013-03-07 03:58:00,40.5,39.4,29.75,SE,135,0.0,3.5,96,0.02,,,0.09,WeatherDisplay:10.37,2013-03-07 11:58:00,
2013-03-07 04:03:00,40.5,39.4,29.75,SE,135,0.7,1.2,96,0.02,CLR,,0.09,WeatherDisplay:10.37,2013-03-07 12:03:00,
2013-03-07 04:08:00,40.5,39.4,29.75,SSE,158,1.6,3.5,96,0.02,CLR,,0.09,WeatherDisplay:10.37,2013-03-07 12:08:00,
2013-03-07 04:14:00,40.5,39.4,29.75,East,90,0.7,4.6,96,0.02,CLR,,0.09,WeatherDisplay:10.37,2013-03-07 12:14:00,
2013-03-07 04:19:00,40.5,39.4,29.76,East,90,0.0,1.2,96,0.02,CLR,,0.11,WeatherDisplay:10.37,2013-03-07 12:19:00,
2013-03-07 04:24:00,40.5,39.4,29.76,East,90,0.7,3.5,96,0.02,RA,,0.11,WeatherDisplay:10.37,2013-03-07 12:24:00,
2013-03-07 04:30:00,40.5,39.4,29.76,East,90,1.6,4.6,96,0.02,,,0.11,WeatherDisplay:10.37,2013-03-07 12:30:00,
2013-03-07 04:35:00,40.5,39.4,29.76,SE,135,2.2,3.8,96,0.02,CLR,,0.11,WeatherDisplay:10.37,2013-03-07 12:35:00,
2013-03-07 04:40:00,40.5,39.4,29.76,SE,135,0.7,2.3,96,0.04,RA,,0.12,WeatherDisplay:10.37,2013-03-07 12:40:00,
2013-03-07 04:45:00,40.5,39.4,29.76,East,90,0.0,3.5,96,0.04,RA,,0.12,WeatherDisplay:10.37,2013-03-07 12:45:00,
2013-03-07 04:51:00,40.5,39.4,29.76,East,90,0.0,1.2,96,0.02,CLR,,0.12,WeatherDisplay:10.37,2013-03-07 12:51:00,
2013-03-07 04:56:00,40.5,39.4,29.77,SE,135,0.7,3.5,96,0.02,CLR,,0.12,WeatherDisplay:10.37,2013-03-07 12:56:00,
2013-03-07 05:01:00,40.5,39.4,29.77,SE,135,0.0,2.3,96,0.02,CLR,,0.12,WeatherDisplay:10.37,2013-03-07 13:01:00,
2013-03-07 05:06:00,40.5,39.4,29.77,South,180,0.7,3.5,96,0.02,CLR,,0.12,WeatherDisplay:10.37,2013-03-07 13:06:00,
2013-03-07 05:12:00,40.5,39.4,29.77,South,180,3.8,6.9,96,0.04,RA,,0.13,WeatherDisplay:10.37,2013-03-07 13:12:00,
2013-03-07 05:17:00,40.5,39.4,29.77,SE,135,0.7,2.3,96,0.04,RA,,0.13,WeatherDisplay:10.37,2013-03-07 13:17:00,
2013-03-07 05:22:00,40.5,39.4,29.78,SE,135,1.6,2.3,96,0.02,CLR,,0.13,WeatherDisplay:10.37,2013-03-07 13:22:00,
2013-03-07 05:28:00,40.5,39.4,29.77,East,90,0.7,2.3,96,0.02,CLR,,0.13,WeatherDisplay:10.37,2013-03-07 13:28:00,
2013-03-07 05:33:00,40.3,39.2,29.78,SE,135,0.0,3.5,96,0.02,CLR,,0.13,WeatherDisplay:10.37,2013-03-07 13:33:00,
2013-03-07 05:38:00,40.3,39.2,29.78,East,90,1.6,3.8,96,0.02,CLR,,0.14,WeatherDisplay:10.37,2013-03-07 13:38:00,
2013-03-07 05:43:00,40.3,39.2,29.78,East,90,0.7,3.5,96,0.02,RA,,0.14,WeatherDisplay:10.37,2013-03-07 13:43:00,
2013-03-07 05:48:00,40.3,39.2,29.78,East,90,2.2,5.8,96,0.02,RA,,0.14,WeatherDisplay:10.37,2013-03-07 13:48:00,
2013-03-07 05:53:00,40.1,39.1,29.78,SE,135,0.7,3.5,96,0.02,CLR,,0.14,WeatherDisplay:10.37,2013-03-07 13:53:00,
2013-03-07 05:59:00,39.9,38.9,29.78,East,90,1.6,5.8,96,0.02,CLR,,0.14,WeatherDisplay:10.37,2013-03-07 13:59:00,
2013-03-07 06:04:00,39.9,38.9,29.78,SE,135,3.1,5.8,96,0.02,CLR,,0.14,WeatherDisplay:10.37,2013-03-07 14:04:00,
2013-03-07 06:09:00,39.9,38.9,29.78,East,90,0.7,5.8,96,0.01,CLR,,0.14,WeatherDisplay:10.37,2013-03-07 14:09:00,
2013-03-07 06:14:00,39.9,38.9,29.79,East,90,2.2,5.8,96,0.01,CLR,,0.14,WeatherDisplay:10.37,2013-03-07 14:14:00,
2013-03-07 06:20:00,39.9,38.9,29.79,East,90,2.2,4.6,96,0.01,CLR,,0.14,WeatherDisplay:10.37,2013-03-07 14:20:00,
2013-03-07 06:25:00,39.9,38.9,29.79,East,90,1.6,3.5,96,0.01,CLR,,0.14,WeatherDisplay:10.37,2013-03-07 14:25:00,
2013-03-07 06:30:00,39.9,38.9,29.79,SE,135,2.2,3.5,96,0.01,CLR,,0.14,WeatherDisplay:10.37,2013-03-07 14:30:00,
2013-03-07 06:35:00,39.9,38.9,29.79,SSE,158,2.2,4.6,96,0.02,RA,,0.15,WeatherDisplay:10.37,2013-03-07 14:35:00,
2013-03-07 06:41:00,39.7,38.7,29.80,East,90,3.1,4.5,96,0.01,RA,,0.15,WeatherDisplay:10.37,2013-03-07 14:41:00,
2013-03-07 06:46:00,39.7,38.7,29.80,East,90,3.1,4.6,96,0.01,CLR,,0.15,WeatherDisplay:10.37,2013-03-07 14:46:00,
2013-03-07 06:51:00,39.7,38.7,29.80,East,90,3.1,3.5,96,0.01,CLR,,0.15,WeatherDisplay:10.37,2013-03-07 14:51:00,
2013-03-07 06:57:00,39.6,38.5,29.80,East,90,2.2,4.6,96,0.01,CLR,,0.15,WeatherDisplay:10.37,2013-03-07 14:57:00,
2013-03-07 07:02:00,39.6,38.5,29.80,SE,135,0.7,5.8,96,0.01,CLR,,0.15,WeatherDisplay:10.37,2013-03-07 15:02:00,
2013-03-07 07:07:00,39.6,38.5,29.80,NE,45,2.2,4.6,96,0.01,CLR,,0.15,WeatherDisplay:10.37,2013-03-07 15:07:00,
2013-03-07 07:12:00,39.6,38.5,29.80,East,90,2.2,3.5,96,0.01,CLR,,0.15,WeatherDisplay:10.37,2013-03-07 15:12:00,
2013-03-07 07:17:00,39.6,38.5,29.80,NE,45,1.6,8.1,96,0.01,CLR,,0.15,WeatherDisplay:10.37,2013-03-07 15:17:00,
2013-03-07 07:23:00,39.7,38.7,29.80,NE,45,1.6,6.9,96,0.01,CLR,,0.15,WeatherDisplay:10.37,2013-03-07 15:23:00,
2013-03-07 07:28:00,39.7,38.7,29.81,East,90,3.1,8.1,96,0.01,CLR,,0.15,WeatherDisplay:10.37,2013-03-07 15:28:00,
2013-03-07 07:34:00,39.7,38.7,29.81,NE,45,3.1,5.8,96,0.00,CLR,,0.15,WeatherDisplay:10.37,2013-03-07 15:34:00,
2013-03-07 07:39:00,39.9,38.9,29.81,NE,45,3.8,8.1,96,0.00,CLR,,0.15,WeatherDisplay:10.37,2013-03-07 15:39:00,
2013-03-07 07:44:00,39.9,38.9,29.81,SE,135,1.6,4.6,96,0.00,CLR,,0.15,WeatherDisplay:10.37,2013-03-07 15:44:00,
2013-03-07 07:49:00,39.9,38.9,29.81,SE,135,2.2,5.8,96,0.00,CLR,,0.15,WeatherDisplay:10.37,2013-03-07 15:49:00,
2013-03-07 07:54:00,39.9,38.9,29.81,East,90,3.1,10.4,96,0.00,CLR,,0.15,WeatherDisplay:10.37,2013-03-07 15:54:00,
2013-03-07 07:59:00,40.1,39.1,29.81,East,90,1.6,5.8,96,0.00,CLR,,0.15,WeatherDisplay:10.37,2013-03-07 15:59:00,
2013-03-07 08:05:00,40.1,39.1,29.81,SE,135,4.5,7.6,96,0.00,CLR,,0.17,WeatherDisplay:10.37,2013-03-07 16:05:00,
2013-03-07 08:10:00,40.3,39.2,29.81,NE,45,3.8,9.2,96,0.01,RA,,0.17,WeatherDisplay:10.37,2013-03-07 16:10:00,
2013-03-07 08:15:00,40.3,39.0,29.82,East,90,2.2,5.8,95,0.01,RA,,0.17,WeatherDisplay:10.37,2013-03-07 16:15:00,
2013-03-07 08:20:00,40.5,39.1,29.82,ENE,68,1.6,5.8,95,0.01,CLR,,0.17,WeatherDisplay:10.37,2013-03-07 16:20:00,
2013-03-07 08:25:00,40.6,39.3,29.82,SE,135,2.2,8.1,95,0.01,CLR,,0.17,WeatherDisplay:10.37,2013-03-07 16:25:00,
2013-03-07 08:31:00,40.6,39.3,29.82,East,90,3.1,6.9,95,0.01,CLR,,0.17,WeatherDisplay:10.37,2013-03-07 16:31:00,
2013-03-07 08:36:00,40.8,39.5,29.82,NE,45,2.2,5.8,95,0.01,CLR,,0.17,WeatherDisplay:10.37,2013-03-07 16:36:00,
2013-03-07 08:41:00,40.8,39.5,29.82,East,90,2.2,4.6,95,0.01,CLR,,0.17,WeatherDisplay:10.37,2013-03-07 16:41:00,
2013-03-07 08:46:00,40.8,39.5,29.83,SE,135,2.2,6.9,95,0.01,CLR,,0.17,WeatherDisplay:10.37,2013-03-07 16:46:00,
2013-03-07 08:52:00,40.8,39.5,29.83,South,180,2.2,6.9,95,0.01,CLR,,0.17,WeatherDisplay:10.37,2013-03-07 16:52:00,
2013-03-07 08:57:00,41.0,39.7,29.83,SE,135,3.1,8.3,95,0.01,CLR,,0.17,WeatherDisplay:10.37,2013-03-07 16:57:00,
2013-03-07 09:02:00,41.0,39.7,29.83,East,90,3.1,8.1,95,0.01,CLR,,0.17,WeatherDisplay:10.37,2013-03-07 17:02:00,
2013-03-07 09:07:00,41.2,39.9,29.83,South,180,3.1,5.8,95,0.00,CLR,,0.17,WeatherDisplay:10.37,2013-03-07 17:07:00,
2013-03-07 09:12:00,41.2,39.9,29.83,NE,45,3.1,9.2,95,0.00,CLR,,0.17,WeatherDisplay:10.37,2013-03-07 17:12:00,
2013-03-07 09:17:00,41.4,40.0,29.83,NE,45,2.2,6.9,95,0.00,CLR,,0.17,WeatherDisplay:10.37,2013-03-07 17:17:00,
2013-03-07 09:23:00,41.5,39.9,29.83,East,90,3.1,5.8,94,0.00,CLR,,0.17,WeatherDisplay:10.37,2013-03-07 17:23:00,
2013-03-07 09:28:00,41.5,39.9,29.84,East,90,3.8,8.1,94,0.00,CLR,,0.17,WeatherDisplay:10.37,2013-03-07 17:28:00,
2013-03-07 09:33:00,41.5,39.9,29.84,NE,45,3.8,9.2,94,0.00,CLR,,0.17,WeatherDisplay:10.37,2013-03-07 17:33:00,
2013-03-07 09:39:00,41.7,40.1,29.84,NE,45,3.1,5.8,94,0.00,CLR,,0.17,WeatherDisplay:10.37,2013-03-07 17:39:00,
2013-03-07 09:44:00,41.9,40.0,29.84,East,90,3.8,6.9,93,0.00,CLR,,0.17,WeatherDisplay:10.37,2013-03-07 17:44:00,
2013-03-07 09:49:00,41.9,40.0,29.85,NE,45,4.5,11.5,93,0.00,CLR,,0.17,WeatherDisplay:10.37,2013-03-07 17:49:00,
2013-03-07 09:54:00,41.9,40.0,29.85,East,90,3.1,10.4,93,0.00,CLR,,0.17,WeatherDisplay:10.37,2013-03-07 17:54:00,
2013-03-07 09:59:00,42.1,40.2,29.85,ENE,68,3.1,8.1,93,0.00,CLR,,0.17,WeatherDisplay:10.37,2013-03-07 17:59:00,
2013-03-07 10:05:00,42.1,40.2,29.85,NE,45,3.1,8.1,93,0.00,CLR,,0.17,WeatherDisplay:10.37,2013-03-07 18:05:00,
2013-03-07 10:10:00,42.3,40.4,29.85,East,90,3.1,5.8,93,0.00,CLR,,0.17,WeatherDisplay:10.37,2013-03-07 18:10:00,
2013-03-07 10:15:00,42.4,40.6,29.85,North,0,3.8,5.8,93,0.00,CLR,,0.17,WeatherDisplay:10.37,2013-03-07 18:15:00,
2013-03-07 10:20:00,42.8,40.6,29.85,NE,45,4.5,10.4,92,0.00,CLR,,0.17,WeatherDisplay:10.37,2013-03-07 18:20:00,
2013-03-07 10:26:00,43.0,40.8,29.85,East,90,3.1,8.1,92,0.00,CLR,,0.17,WeatherDisplay:10.37,2013-03-07 18:26:00,
2013-03-07 10:31:00,43.0,40.8,29.85,East,90,2.2,6.9,92,0.00,CLR,,0.17,WeatherDisplay:10.37,2013-03-07 18:31:00,
2013-03-07 10:36:00,43.0,40.5,29.85,East,90,5.4,9.2,91,0.00,CLR,,0.17,WeatherDisplay:10.37,2013-03-07 18:36:00,
2013-03-07 10:42:00,43.2,41.0,29.86,NE,45,1.6,6.9,92,0.00,CLR,,0.17,WeatherDisplay:10.37,2013-03-07 18:42:00,
2013-03-07 10:47:00,43.2,40.7,29.85,NE,45,5.4,7.6,91,0.00,CLR,,0.17,WeatherDisplay:10.37,2013-03-07 18:47:00,
2013-03-07 10:52:00,43.2,40.7,29.86,NE,45,4.5,8.1,91,0.00,CLR,,0.17,WeatherDisplay:10.37,2013-03-07 18:52:00,
2013-03-07 10:57:00,43.2,40.7,29.85,East,90,3.8,6.9,91,0.00,CLR,,0.17,WeatherDisplay:10.37,2013-03-07 18:57:00,
2013-03-07 11:02:00,43.5,41.1,29.86,NE,45,5.4,6.9,91,0.00,CLR,,0.17,WeatherDisplay:10.37,2013-03-07 19:02:00,
2013-03-07 11:08:00,43.7,41.0,29.86,East,90,3.1,8.1,90,0.00,CLR,,0.17,WeatherDisplay:10.37,2013-03-07 19:08:00,
2013-03-07 11:13:00,43.9,41.1,29.86,SE,135,3.1,10.4,90,0.00,CLR,,0.17,WeatherDisplay:10.37,2013-03-07 19:13:00,
2013-03-07 11:18:00,43.9,41.1,29.86,NE,45,3.8,8.1,90,0.00,CLR,,0.17,WeatherDisplay:10.37,2013-03-07 19:18:00,
2013-03-07 11:23:00,43.7,41.0,29.86,SE,135,3.1,8.1,90,0.00,CLR,,0.17,WeatherDisplay:10.37,2013-03-07 19:23:00,
2013-03-07 11:28:00,43.9,41.1,29.86,East,90,3.8,6.9,90,0.00,CLR,,0.17,WeatherDisplay:10.37,2013-03-07 19:28:00,
2013-03-07 11:34:00,44.1,41.3,29.86,SE,135,0.7,5.8,90,0.00,CLR,,0.17,WeatherDisplay:10.37,2013-03-07 19:34:00,
2013-03-07 11:39:00,44.1,41.3,29.87,SE,135,2.2,8.1,90,0.00,CLR,,0.17,WeatherDisplay:10.37,2013-03-07 19:39:00,
2013-03-07 11:44:00,44.2,41.5,29.87,NE,45,3.1,8.1,90,0.00,CLR,,0.17,WeatherDisplay:10.37,2013-03-07 19:44:00,
2013-03-07 11:50:00,44.4,41.7,29.87,NE,45,2.2,5.8,90,0.00,CLR,,0.17,WeatherDisplay:10.37,2013-03-07 19:50:00,
2013-03-07 11:55:00,44.1,41.3,29.87,NE,45,4.5,6.9,90,0.00,CLR,,0.17,WeatherDisplay:10.37,2013-03-07 19:55:00,
2013-03-07 12:00:00,44.1,41.3,29.87,NE,45,1.6,3.5,90,0.00,CLR,,0.17,WeatherDisplay:10.37,2013-03-07 20:00:00,
2013-03-07 12:05:00,43.9,41.1,29.87,East,90,1.6,5.8,90,0.00,CLR,,0.17,WeatherDisplay:10.37,2013-03-07 20:05:00,
2013-03-07 12:10:00,43.9,41.4,29.87,East,90,1.6,4.6,91,0.00,CLR,,0.17,WeatherDisplay:10.37,2013-03-07 20:10:00,
2013-03-07 12:16:00,43.7,41.0,29.87,East,90,4.5,8.1,90,0.00,CLR,,0.17,WeatherDisplay:10.37,2013-03-07 20:16:00,
2013-03-07 12:21:00,43.5,41.1,29.87,NE,45,2.2,4.5,91,0.00,CLR,,0.17,WeatherDisplay:10.37,2013-03-07 20:21:00,
2013-03-07 12:26:00,43.3,40.9,29.87,NE,45,3.1,6.9,91,0.00,CLR,,0.17,WeatherDisplay:10.37,2013-03-07 20:26:00,
2013-03-07 12:31:00,43.3,40.9,29.87,East,90,2.2,5.8,91,0.00,CLR,,0.17,WeatherDisplay:10.37,2013-03-07 20:31:00,
2013-03-07 12:36:00,43.3,40.9,29.87,East,90,1.6,6.9,91,0.00,CLR,,0.17,WeatherDisplay:10.37,2013-03-07 20:36:00,
2013-03-07 12:41:00,43.3,41.2,29.87,NE,45,1.6,3.5,92,0.00,CLR,,0.17,WeatherDisplay:10.37,2013-03-07 20:41:00,
2013-03-07 12:46:00,43.3,41.2,29.87,NE,45,1.6,3.5,92,0.00,CLR,,0.17,WeatherDisplay:10.37,2013-03-07 20:46:00,
2013-03-07 12:52:00,43.3,41.2,29.87,NE,45,2.2,5.8,92,0.00,CLR,,0.17,WeatherDisplay:10.37,2013-03-07 20:52:00,
2013-03-07 12:57:00,43.2,41.0,29.87,East,90,3.1,4.6,92,0.00,CLR,,0.17,WeatherDisplay:10.37,2013-03-07 20:57:00,
2013-03-07 13:02:00,43.3,41.2,29.87,ENE,68,2.2,4.6,92,0.00,CLR,,0.17,WeatherDisplay:10.37,2013-03-07 21:02:00,
2013-03-07 13:07:00,43.3,41.2,29.87,East,90,3.1,4.6,92,0.00,CLR,,0.17,WeatherDisplay:10.37,2013-03-07 21:07:00,
2013-03-07 13:13:00,43.3,41.2,29.87,East,90,1.6,4.6,92,0.00,CLR,,0.17,WeatherDisplay:10.37,2013-03-07 21:13:00,
2013-03-07 13:18:00,43.5,41.4,29.87,NE,45,3.8,4.6,92,0.00,CLR,,0.17,WeatherDisplay:10.37,2013-03-07 21:18:00,
2013-03-07 13:23:00,43.7,41.5,29.87,NE,45,3.1,5.8,92,0.00,CLR,,0.17,WeatherDisplay:10.37,2013-03-07 21:23:00,
2013-03-07 13:28:00,43.9,41.7,29.86,East,90,3.1,5.8,92,0.00,CLR,,0.17,WeatherDisplay:10.37,2013-03-07 21:28:00,
2013-03-07 13:33:00,44.1,41.9,29.86,NE,45,3.8,6.9,92,0.00,CLR,,0.17,WeatherDisplay:10.37,2013-03-07 21:33:00,
2013-03-07 13:39:00,44.4,42.2,29.87,East,90,2.2,5.8,92,0.00,CLR,,0.17,WeatherDisplay:10.37,2013-03-07 21:39:00,
2013-03-07 13:44:00,44.8,42.3,29.86,NE,45,1.6,4.6,91,0.00,CLR,,0.17,WeatherDisplay:10.37,2013-03-07 21:44:00,
2013-03-07 13:49:00,44.6,42.1,29.86,East,90,3.1,5.8,91,0.00,CLR,,0.17,WeatherDisplay:10.37,2013-03-07 21:49:00,
2013-03-07 13:54:00,44.6,42.1,29.86,East,90,1.6,5.8,91,0.00,CLR,,0.17,WeatherDisplay:10.37,2013-03-07 21:54:00,
2013-03-07 13:59:00,44.8,42.3,29.86,NE,45,4.5,4.6,91,0.00,CLR,,0.17,WeatherDisplay:10.37,2013-03-07 21:59:00,
2013-03-07 14:05:00,45.0,42.5,29.86,NE,45,2.2,6.9,91,0.00,CLR,,0.17,WeatherDisplay:10.37,2013-03-07 22:05:00,
2013-03-07 14:10:00,45.1,42.7,29.86,NE,45,2.2,5.8,91,0.00,CLR,,0.17,WeatherDisplay:10.37,2013-03-07 22:10:00,
2013-03-07 14:15:00,45.3,42.6,29.86,NE,45,1.6,5.8,90,0.00,CLR,,0.17,WeatherDisplay:10.37,2013-03-07 22:15:00,
2013-03-07 14:20:00,45.7,42.9,29.86,NE,45,2.2,5.8,90,0.00,CLR,,0.17,WeatherDisplay:10.37,2013-03-07 22:20:00,
2013-03-07 14:25:00,45.9,43.1,29.86,NE,45,3.1,6.9,90,0.00,CLR,,0.17,WeatherDisplay:10.37,2013-03-07 22:25:00,
2013-03-07 14:31:00,46.2,43.4,29.86,East,90,1.6,5.8,90,0.00,CLR,,0.17,WeatherDisplay:10.37,2013-03-07 22:31:00,
2013-03-07 14:36:00,46.0,42.7,29.86,NE,45,3.8,6.9,88,0.00,CLR,,0.17,WeatherDisplay:10.37,2013-03-07 22:36:00,
2013-03-07 14:41:00,46.0,42.7,29.86,East,90,4.5,8.1,88,0.00,CLR,,0.17,WeatherDisplay:10.37,2013-03-07 22:41:00,
2013-03-07 14:46:00,46.2,42.9,29.86,East,90,2.2,3.5,88,0.00,CLR,,0.17,WeatherDisplay:10.37,2013-03-07 22:46:00,
2013-03-07 14:52:00,46.2,42.9,29.86,ENE,68,5.4,9.2,88,0.00,CLR,,0.17,WeatherDisplay:10.37,2013-03-07 22:52:00,
2013-03-07 14:57:00,46.2,42.9,29.87,East,90,3.1,8.1,88,0.00,CLR,,0.17,WeatherDisplay:10.37,2013-03-07 22:57:00,
2013-03-07 15:02:00,46.2,42.6,29.87,NE,45,4.5,6.9,87,0.00,CLR,,0.17,WeatherDisplay:10.37,2013-03-07 23:02:00,
2013-03-07 15:07:00,46.4,43.0,29.87,East,90,2.2,5.8,88,0.00,CLR,,0.17,WeatherDisplay:10.37,2013-03-07 23:07:00,
2013-03-07 15:12:00,46.4,42.7,29.87,SE,135,2.2,5.8,87,0.00,CLR,,0.17,WeatherDisplay:10.37,2013-03-07 23:12:00,
2013-03-07 15:17:00,46.6,43.2,29.87,SE,135,3.1,6.0,88,0.00,CLR,,0.17,WeatherDisplay:10.37,2013-03-07 23:17:00,
2013-03-07 15:22:00,46.4,42.7,29.87,East,90,3.8,4.6,87,0.00,CLR,,0.17,WeatherDisplay:10.37,2013-03-07 23:22:00,
2013-03-07 15:28:00,46.2,42.3,29.87,East,90,3.1,6.9,86,0.00,CLR,,0.17,WeatherDisplay:10.37,2013-03-07 23:28:00,
2013-03-07 15:33:00,46.0,42.1,29.87,East,90,2.2,9.2,86,0.00,CLR,,0.17,WeatherDisplay:10.37,2013-03-07 23:33:00,
2013-03-07 15:38:00,46.0,42.4,29.87,NE,45,2.2,5.8,87,0.00,CLR,,0.17,WeatherDisplay:10.37,2013-03-07 23:38:00,
2013-03-07 15:43:00,46.0,42.4,29.87,East,90,3.8,4.6,87,0.00,CLR,,0.17,WeatherDisplay:10.37,2013-03-07 23:43:00,
2013-03-07 15:48:00,45.9,41.9,29.87,NE,45,2.2,5.8,86,0.00,CLR,,0.17,WeatherDisplay:10.37,2013-03-07 23:48:00,
2013-03-07 15:54:00,45.9,42.2,29.86,NNE,22,2.2,5.8,87,0.00,CLR,,0.17,WeatherDisplay:10.37,2013-03-07 23:54:00,
2013-03-07 15:59:00,45.9,42.2,29.87,NE,45,2.2,5.8,87,0.00,CLR,,0.17,WeatherDisplay:10.37,2013-03-07 23:59:00,
2013-03-07 16:04:00,46.0,42.4,29.87,East,90,1.6,5.8,87,0.00,CLR,,0.17,WeatherDisplay:10.37,2013-03-08 00:04:00,
2013-03-07 16:10:00,46.2,42.3,29.87,NE,45,1.6,4.6,86,0.00,CLR,,0.17,WeatherDisplay:10.37,2013-03-08 00:10:00,
2013-03-07 16:15:00,46.4,42.4,29.87,NE,45,0.7,4.6,86,0.00,CLR,,0.17,WeatherDisplay:10.37,2013-03-08 00:15:00,
2013-03-07 16:21:00,46.4,42.4,29.87,SE,135,1.6,4.6,86,0.00,CLR,,0.17,WeatherDisplay:10.37,2013-03-08 00:21:00,
2013-03-07 16:26:00,46.4,42.4,29.87,East,90,1.6,4.6,86,0.00,CLR,,0.17,WeatherDisplay:10.37,2013-03-08 00:26:00,
2013-03-07 16:31:00,46.2,42.3,29.87,NE,45,1.6,3.5,86,0.00,CLR,,0.17,WeatherDisplay:10.37,2013-03-08 00:31:00,
2013-03-07 16:36:00,46.2,42.3,29.86,East,90,1.6,3.8,86,0.00,CLR,,0.17,WeatherDisplay:10.37,2013-03-08 00:36:00,
2013-03-07 16:41:00,46.8,42.5,29.87,East,90,1.6,3.5,85,0.00,CLR,,0.17,WeatherDisplay:10.37,2013-03-08 00:41:00,
2013-03-07 16:47:00,47.7,43.1,29.87,East,90,0.7,1.6,84,0.00,CLR,,0.17,WeatherDisplay:10.37,2013-03-08 00:47:00,
2013-03-07 16:52:00,48.6,43.6,29.87,SE,135,0.7,2.3,83,0.00,CLR,,0.17,WeatherDisplay:10.37,2013-03-08 00:52:00,
2013-03-07 16:57:00,48.6,43.3,29.87,East,90,0.7,2.3,82,0.00,CLR,,0.17,WeatherDisplay:10.37,2013-03-08 00:57:00,
2013-03-07 17:02:00,49.6,43.4,29.87,SE,135,0.7,3.1,79,0.00,CLR,,0.17,WeatherDisplay:10.37,2013-03-08 01:02:00,
2013-03-07 17:07:00,50.2,43.6,29.87,East,90,0.0,2.3,78,0.00,CLR,,0.17,WeatherDisplay:10.37,2013-03-08 01:07:00,
2013-03-07 17:12:00,50.7,43.8,29.87,East,90,0.7,2.3,77,0.00,CLR,,0.17,WeatherDisplay:10.37,2013-03-08 01:12:00,
2013-03-07 17:18:00,51.8,44.5,29.87,East,90,0.0,1.2,76,0.00,CLR,,0.17,WeatherDisplay:10.37,2013-03-08 01:18:00,
2013-03-07 17:23:00,52.0,43.6,29.87,ESE,112,0.7,1.2,73,0.00,CLR,,0.17,WeatherDisplay:10.37,2013-03-08 01:23:00,
2013-03-07 17:28:00,51.8,43.4,29.87,SE,135,0.7,2.3,73,0.00,CLR,,0.17,WeatherDisplay:10.37,2013-03-08 01:28:00,
2013-03-07 17:33:00,51.1,43.4,29.87,SE,135,0.7,1.2,75,0.00,CLR,,0.17,WeatherDisplay:10.37,2013-03-08 01:33:00,
2013-03-07 17:39:00,49.5,42.9,29.87,SE,135,0.7,2.3,78,0.00,CLR,,0.17,WeatherDisplay:10.37,2013-03-08 01:39:00,
2013-03-07 17:44:00,47.8,42.3,29.87,SE,135,0.0,1.2,81,0.00,CLR,,0.17,WeatherDisplay:10.37,2013-03-08 01:44:00,
2013-03-07 17:49:00,47.3,42.1,29.87,SE,135,0.7,1.6,82,0.00,CLR,,0.17,WeatherDisplay:10.37,2013-03-08 01:49:00,
2013-03-07 17:54:00,45.7,41.4,29.87,SE,135,1.6,3.5,85,0.00,CLR,,0.17,WeatherDisplay:10.37,2013-03-08 01:54:00,
2013-03-07 17:59:00,44.8,41.1,29.87,SE,135,1.6,3.5,87,0.00,CLR,,0.17,WeatherDisplay:10.37,2013-03-08 01:59:00,
2013-03-07 18:05:00,44.2,41.2,29.87,SE,135,1.6,3.5,89,0.00,CLR,,0.17,WeatherDisplay:10.37,2013-03-08 02:05:00,
2013-03-07 18:10:00,43.7,41.0,29.87,SE,135,2.2,3.5,90,0.00,CLR,,0.17,WeatherDisplay:10.37,2013-03-08 02:10:00,
2013-03-07 18:15:00,43.3,40.9,29.87,SE,135,1.6,3.5,91,0.00,CLR,,0.17,WeatherDisplay:10.37,2013-03-08 02:15:00,
2013-03-07 18:21:00,43.0,40.5,29.87,SSE,158,1.6,3.5,91,0.00,CLR,,0.17,WeatherDisplay:10.37,2013-03-08 02:21:00,
2013-03-07 18:26:00,42.8,40.6,29.87,SE,135,2.2,3.5,92,0.00,CLR,,0.17,WeatherDisplay:10.37,2013-03-08 02:26:00,
2013-03-07 18:31:00,42.4,40.3,29.87,SE,135,0.7,2.3,92,0.00,CLR,,0.17,WeatherDisplay:10.37,2013-03-08 02:31:00,
2013-03-07 18:36:00,42.1,39.9,29.88,SE,135,0.0,1.2,92,0.00,CLR,,0.17,WeatherDisplay:10.37,2013-03-08 02:36:00,
2013-03-07 18:42:00,41.9,40.0,29.88,SE,135,0.7,2.3,93,0.00,CLR,,0.17,WeatherDisplay:10.37,2013-03-08 02:42:00,
2013-03-07 18:47:00,41.9,40.0,29.88,SE,135,0.7,2.3,93,0.00,CLR,,0.17,WeatherDisplay:10.37,2013-03-08 02:47:00,
2013-03-07 18:52:00,41.7,40.1,29.88,SE,135,1.6,3.5,94,0.00,CLR,,0.17,WeatherDisplay:10.37,2013-03-08 02:52:00,
2013-03-07 18:58:00,41.4,39.8,29.88,SE,135,1.6,3.5,94,0.00,CLR,,0.17,WeatherDisplay:10.37,2013-03-08 02:58:00,
2013-03-07 19:03:00,41.2,39.6,29.88,SE,135,1.6,3.5,94,0.00,CLR,,0.17,WeatherDisplay:10.37,2013-03-08 03:03:00,
2013-03-07 19:08:00,41.0,39.4,29.88,SE,135,1.6,3.5,94,0.00,CLR,,0.17,WeatherDisplay:10.37,2013-03-08 03:08:00,
2013-03-07 19:14:00,40.8,39.5,29.88,SE,135,1.6,3.5,95,0.00,CLR,,0.17,WeatherDisplay:10.37,2013-03-08 03:14:00,
2013-03-07 19:19:00,40.6,39.3,29.88,SE,135,0.7,3.5,95,0.00,CLR,,0.17,WeatherDisplay:10.37,2013-03-08 03:19:00,
2013-03-07 19:24:00,40.6,39.3,29.88,SE,135,2.2,3.5,95,0.00,CLR,,0.17,WeatherDisplay:10.37,2013-03-08 03:24:00,
2013-03-07 19:30:00,40.6,39.3,29.88,SE,135,1.6,3.5,95,0.00,CLR,,0.17,WeatherDisplay:10.37,2013-03-08 03:30:00,
2013-03-07 19:35:00,40.6,39.3,29.88,SE,135,2.2,3.5,95,0.00,CLR,,0.17,WeatherDisplay:10.37,2013-03-08 03:35:00,
2013-03-07 19:40:00,40.5,39.1,29.88,SE,135,2.2,3.5,95,0.00,CLR,,0.17,WeatherDisplay:10.37,2013-03-08 03:40:00,
2013-03-07 19:45:00,40.5,39.1,29.88,East,90,2.2,4.6,95,0.00,CLR,,0.17,WeatherDisplay:10.37,2013-03-08 03:45:00,
2013-03-07 19:51:00,40.3,39.2,29.88,SE,135,2.2,3.8,96,0.00,CLR,,0.17,WeatherDisplay:10.37,2013-03-08 03:51:00,
2013-03-07 19:56:00,40.1,38.8,29.88,ESE,112,1.6,3.5,95,0.00,CLR,,0.17,WeatherDisplay:10.37,2013-03-08 03:56:00,
2013-03-07 20:01:00,40.3,39.2,29.88,SE,135,2.2,3.5,96,0.00,CLR,,0.17,WeatherDisplay:10.37,2013-03-08 04:01:00,
2013-03-07 20:06:00,40.1,39.1,29.88,SE,135,1.6,3.5,96,0.00,CLR,,0.17,WeatherDisplay:10.37,2013-03-08 04:06:00,
2013-03-07 20:12:00,40.3,39.2,29.88,SE,135,1.6,3.5,96,0.00,CLR,,0.17,WeatherDisplay:10.37,2013-03-08 04:12:00,
2013-03-07 20:18:00,40.6,39.6,29.89,SE,135,1.6,3.8,96,0.00,CLR,,0.17,WeatherDisplay:10.37,2013-03-08 04:18:00,
2013-03-07 20:23:00,40.8,39.8,29.88,SE,135,1.6,3.5,96,0.00,CLR,,0.17,WeatherDisplay:10.37,2013-03-08 04:23:00,
2013-03-07 20:28:00,41.0,39.9,29.88,East,90,1.6,3.5,96,0.00,CLR,,0.17,WeatherDisplay:10.37,2013-03-08 04:28:00,
2013-03-07 20:33:00,40.8,39.8,29.89,SE,135,1.6,3.5,96,0.00,CLR,,0.17,WeatherDisplay:10.37,2013-03-08 04:33:00,
2013-03-07 20:39:00,41.0,39.9,29.89,SE,135,1.6,3.5,96,0.00,CLR,,0.17,WeatherDisplay:10.37,2013-03-08 04:39:00,
2013-03-07 20:44:00,41.0,39.9,29.89,SE,135,1.6,2.3,96,0.00,CLR,,0.17,WeatherDisplay:10.37,2013-03-08 04:44:00,
2013-03-07 20:49:00,40.8,39.8,29.89,SE,135,1.6,3.5,96,0.00,CLR,,0.17,WeatherDisplay:10.37,2013-03-08 04:49:00,
2013-03-07 20:55:00,40.6,39.3,29.89,SE,135,0.7,2.3,95,0.00,CLR,,0.17,WeatherDisplay:10.37,2013-03-08 04:55:00,
2013-03-07 21:00:00,40.3,39.0,29.90,SE,135,1.6,3.5,95,0.00,CLR,,0.17,WeatherDisplay:10.37,2013-03-08 05:00:00,
2013-03-07 21:01:00,40.3,39.0,29.89,SE,135,1.6,3.5,95,0.00,CLR,,0.17,WeatherDisplay:10.37,2013-03-08 05:01:00,
2013-03-07 21:06:00,39.7,38.4,29.90,SE,135,1.6,2.3,95,0.00,CLR,,0.17,WeatherDisplay:10.37,2013-03-08 05:06:00,
2013-03-07 21:07:00,39.6,38.2,29.90,SSE,158,1.6,2.3,95,0.00,CLR,,0.17,WeatherDisplay:10.37,2013-03-08 05:07:00,
2013-03-07 21:08:00,39.6,38.2,29.90,South,180,0.7,2.3,95,0.00,CLR,,0.17,WeatherDisplay:10.37,2013-03-08 05:08:00,
2013-03-07 21:13:00,38.8,37.5,29.90,SE,135,1.6,3.5,95,0.00,CLR,,0.17,WeatherDisplay:10.37,2013-03-08 05:13:00,
2013-03-07 21:18:00,39.0,37.7,29.90,South,180,0.7,3.5,95,0.00,CLR,,0.17,WeatherDisplay:10.37,2013-03-08 05:18:00,
2013-03-07 21:23:00,38.8,37.5,29.90,SE,135,0.7,2.3,95,0.00,CLR,,0.17,WeatherDisplay:10.37,2013-03-08 05:23:00,
2013-03-07 21:28:00,39.0,38.0,29.90,SE,135,1.6,2.3,96,0.00,CLR,,0.17,WeatherDisplay:10.37,2013-03-08 05:28:00,
2013-03-07 21:34:00,39.0,38.0,29.90,SE,135,2.2,3.5,96,0.00,CLR,,0.17,WeatherDisplay:10.37,2013-03-08 05:34:00,
2013-03-07 21:39:00,38.5,37.4,29.90,SE,135,1.6,3.5,96,0.00,CLR,,0.17,WeatherDisplay:10.37,2013-03-08 05:39:00,
2013-03-07 21:44:00,38.5,37.4,29.90,SE,135,1.6,3.5,96,0.00,CLR,,0.17,WeatherDisplay:10.37,2013-03-08 05:44:00,
2013-03-07 21:49:00,38.5,37.4,29.90,SE,135,3.1,3.5,96,0.00,CLR,,0.17,WeatherDisplay:10.37,2013-03-08 05:49:00,
2013-03-07 21:55:00,38.7,37.6,29.90,SE,135,2.2,4.5,96,0.00,CLR,,0.17,WeatherDisplay:10.37,2013-03-08 05:55:00,
2013-03-07 22:00:00,38.8,37.8,29.89,SE,135,2.2,3.5,96,0.00,CLR,,0.17,WeatherDisplay:10.37,2013-03-08 06:00:00,
2013-03-07 22:05:00,39.0,38.0,29.90,East,90,0.7,3.5,96,0.00,CLR,,0.17,WeatherDisplay:10.37,2013-03-08 06:05:00,
2013-03-07 22:10:00,39.6,38.8,29.90,East,90,1.6,3.5,97,0.00,CLR,,0.17,WeatherDisplay:10.37,2013-03-08 06:10:00,
2013-03-07 22:15:00,39.9,39.1,29.90,NE,45,1.6,4.6,97,0.00,CLR,,0.17,WeatherDisplay:10.37,2013-03-08 06:15:00,
2013-03-07 22:21:00,40.1,39.3,29.90,East,90,2.2,3.5,97,0.00,CLR,,0.17,WeatherDisplay:10.37,2013-03-08 06:21:00,
2013-03-07 22:26:00,40.1,39.3,29.91,East,90,2.2,3.8,97,0.00,CLR,,0.17,WeatherDisplay:10.37,2013-03-08 06:26:00,
2013-03-07 22:31:00,40.1,39.3,29.90,NE,45,2.2,3.5,97,0.01,RA,,0.18,WeatherDisplay:10.37,2013-03-08 06:31:00,
2013-03-07 22:36:00,40.6,39.9,29.90,East,90,3.1,6.0,97,0.01,RA,,0.18,WeatherDisplay:10.37,2013-03-08 06:36:00,
2013-03-07 22:42:00,40.5,39.7,29.90,East,90,1.6,5.8,97,0.01,CLR,,0.18,WeatherDisplay:10.37,2013-03-08 06:42:00,
2013-03-07 22:47:00,40.3,39.2,29.90,East,90,3.8,5.8,96,0.01,CLR,,0.18,WeatherDisplay:10.37,2013-03-08 06:47:00,
2013-03-07 22:52:00,40.8,40.0,29.90,East,90,3.8,5.8,97,0.01,CLR,,0.18,WeatherDisplay:10.37,2013-03-08 06:52:00,
2013-03-07 22:57:00,41.0,39.9,29.90,NE,45,4.5,7.6,96,0.01,CLR,,0.18,WeatherDisplay:10.37,2013-03-08 06:57:00,
2013-03-07 23:02:00,40.8,39.8,29.90,NE,45,3.8,5.8,96,0.01,CLR,,0.18,WeatherDisplay:10.37,2013-03-08 07:02:00,
2013-03-07 23:08:00,41.0,39.9,29.90,NE,45,3.8,6.9,96,0.01,CLR,,0.18,WeatherDisplay:10.37,2013-03-08 07:08:00,
2013-03-07 23:13:00,41.0,39.9,29.90,NE,45,3.8,6.9,96,0.01,CLR,,0.18,WeatherDisplay:10.37,2013-03-08 07:13:00,
2013-03-07 23:18:00,41.0,39.9,29.90,NE,45,4.5,8.1,96,0.01,CLR,,0.18,WeatherDisplay:10.37,2013-03-08 07:18:00,
2013-03-07 23:23:00,41.0,39.9,29.90,East,90,3.8,8.1,96,0.01,CLR,,0.18,WeatherDisplay:10.37,2013-03-08 07:23:00,
2013-03-07 23:28:00,41.0,39.9,29.90,NE,45,4.5,8.1,96,0.00,CLR,,0.18,WeatherDisplay:10.37,2013-03-08 07:28:00,
2013-03-07 23:34:00,40.8,39.8,29.90,NE,45,4.5,8.1,96,0.00,CLR,,0.18,WeatherDisplay:10.37,2013-03-08 07:34:00,
2013-03-07 23:39:00,40.8,39.8,29.90,NE,45,4.5,6.9,96,0.00,CLR,,0.18,WeatherDisplay:10.37,2013-03-08 07:39:00,
2013-03-07 23:44:00,40.8,39.8,29.90,NE,45,5.4,9.2,96,0.00,CLR,,0.18,WeatherDisplay:10.37,2013-03-08 07:44:00,
2013-03-07 23:50:00,40.8,39.5,29.90,NE,45,4.5,8.1,95,0.00,CLR,,0.18,WeatherDisplay:10.37,2013-03-08 07:50:00,
2013-03-07 23:55:00,40.8,39.5,29.90,East,90,3.8,6.9,95,0.00,CLR,,0.18,WeatherDisplay:10.37,2013-03-08 07:55:00,